Regional Weather Roundup
Issued by NWS

Home | Current Version | Previous Version | Text Only | Print | Product List | Glossary Off
Versions: 1 2 3 4 5 6 7 8 9 10 11 12 13 14 15 16 17 18 19 20 21 22 23 24 25 26 27 28 29 30 31 32 33 34 35 36 37 38 39 40 41 42 43 44 45 46 47 48 49 50

000
ASUS45 KSLC 160710
RWRUT

UTAH REGIONAL WEATHER ROUNDUP
NATIONAL WEATHER SERVICE SALT LAKE CITY UT
100 AM MDT TUE SEP 16 2014

UTZ001>011-023>025-160800-

NORTHERN UTAH

CITY           SKY/WX    TMP DP  RH WIND       PRES   REMARKS
HILL AFB       CLEAR     66  39  36 SE16      30.12S
LOGAN          CLEAR     54  45  71 E6        30.12S
OGDEN          CLEAR     66  40  38 S8        30.09S
PROVO AIRPORT  CLEAR     57  46  67 E7        30.14R
SALT LAKE CITY CLEAR     68  43  40 SE9       30.08S
VERNAL         CLEAR     60  42  51 W6        30.20R
WENDOVER       MOCLDY    68  37  32 CALM      30.08S
HEBER CITY     CLEAR     46  41  81 CALM      30.24R
WEST JORDAN    CLEAR     64  37  36 S5        30.12S

$$

UTZ012>022-026-027-160800-

SOUTHERN UTAH

CITY           SKY/WX    TMP DP  RH WIND       PRES   REMARKS
BRYCE CANYON   CLEAR     46  40  79 CALM      30.38S
CEDAR CITY     CLEAR     65  39  38 SE3       30.19S
MILFORD        CLEAR     63  40  42 SW9       30.15R
MOAB/CYNLANDS  CLEAR     68  39  34 W5        30.11R
PRICE          CLEAR     63  35  35 N9        30.23R
ST GEORGE      SUNNY     75  41  29 CALM      30.00S
KANAB            N/A     61  39  44 NE5       30.19R

$$

REGIONAL REPORTS     COLORADO/ARIZONA

CITY           SKY/WX    TMP DP  RH WIND       PRES   REMARKS
CRAIG, CO      CLEAR     46  39  76 CALM      30.28S
GRAND JUNCTION CLEAR     62  42  47 E6        30.17R
RIFLE          CLEAR     54  41  61 CALM      30.25S
MONTROSE       CLEAR     61  39  44 SE9       30.27R
CORTEZ         CLEAR     58  44  60 E5        30.29R
PAGE, AZ       CLEAR     80  40  23 SW5       30.11R
GRAND CANYON   CLEAR     52  43  71 CALM      30.30S
KINGMAN        CLEAR     73  55  53 CALM      30.02S
FLAGSTAFF      PTCLDY    53  46  77 CALM      30.33F

$$

REGIONAL REPORTS    NEVADA/IDAHO/WYOMING

CITY           SKY/WX    TMP DP  RH WIND       PRES   REMARKS
LAS VEGAS, NV  CLEAR     88  47  24 S9        29.86S
ELY            CLEAR     59  38  45 S10       30.23R
ELKO           CLEAR     60  29  30 E6        30.09F
POCATELLO, ID  CLEAR     60  34  37 NE5       30.09F
BURLEY         PTCLDY    55  44  66 CALM      30.05S
EVANSTON, WY   CLEAR     56  32  40 SE8       30.32S
ROCK SPRINGS   CLEAR     59  33  37 SW7       30.29S

$$



USA.gov is the U.S. government's official web portal to all federal, state and local government web resources and services.